User: anonymous   Login
Location: Unspecified
(0.0000°N, 0.0000°E)
Time: 10:26:34
(UTC+00:00)
Language:

YUBELEINY 2 - Orbit

View from above orbital plane
View from above orbital plane
View from above satellite
View from above satellite

Ground track
Ground track

The orbit data is extracted from the following two-line orbital elements,

1 38735U 12041C   20219.77327585 -.00000007 +00000-0 -12017-3 0  9995
2 38735 082.4784 329.2862 0017654 054.5737 305.6990 12.42580105364101
Epoch (UTC): 06 August 2020 18:33:31
Eccentricity: 0.0017654
inclination: 82.4784°
perigee height: 1482 km
apogee height: 1509 km
right ascension of ascending node: 329.2862°
argument of perigee: 54.5737°
revolutions per day: 12.42580105
mean anomaly at epoch: 305.6990°
orbit number at epoch: 36410

The dashed part of the orbit path shows where the satellite is in the earth's shadow,  

DLR